Regional Weather Roundup
Issued by NWS Charleston, SC

Current Version | Previous Version | Graphics & Text | Print | Product List | Glossary On
Versions: 1 2 3 4 5 6 7 8 9 10 11 12 13 14 15 16 17 18 19 20 21 22 23 24 25 26 27 28 29 30 31 32 33 34 35 36 37 38 39 40 41 42 43 44 45 46 47 48 49 50
000 ASUS42 KCHS 052112 RWRCHS REGIONAL WEATHER ROUNDUP NATIONAL WEATHER SERVICE CHARLESTON SC 400 PM EST MON DEC 05 2016 NOTE: "FAIR" INDICATES FEW OR NO CLOUDS BELOW 12,000 FEET WITH NO SIGNIFICANT WEATHER AND/OR OBSTRUCTIONS TO VISIBILITY. NOT ALL STATIONS ARE QUALITY CONTROLLED. USE DATA WITH CAUTION... ESPECIALLY DEWPOINT OBSERVATIONS. SCZ027-030-031-034>040-042>050-052200- ...SOUTHEAST SOUTH CAROLINA... CITY SKY/WX TMP DP RH WIND PRES REMARKS N CHARLESTON CLOUDY 61 54 77 NE6 29.95R WATERFRONT PRK N/A 59 57 93 N7 29.93F MOUNT PLEASANT NOT AVBL JOHNS ISLAND CLOUDY 61 57 88 N3 29.95R PINOPOLIS N/A 57 55 94 N5 29.86S MONCKS CORNER CLOUDY 57 52 82 CALM 29.96R SUMMERVILLE CLOUDY 61 55 82 NE5 29.96R BEAUFORT MCAS RAIN 59 57 93 CALM 29.94R FOG BEAUFORT ARPT LGT RAIN 59 57 94 N3 29.94R HILTON HEAD IS CLOUDY 61 57 88 CALM 29.94R WALTERBORO CLOUDY 61 N/A N/A E3 29.96R ALLENDALE CLOUDY 57 54 88 CALM 29.94R ...SOUTHERN MIDLANDS AND PEE DEE... CITY SKY/WX TMP DP RH WIND PRES REMARKS GEORGETOWN NOT AVBL KINGSTREE MOCLDY 57 48 72 CALM 29.97R ORANGEBURG CLOUDY 58 51 78 E6 29.95R BARNWELL NOT AVBL AIKEN MOCLDY 55 50 82 NE8 29.97F MANNING MOCLDY 57 50 77 NE6 29.96S COLUMBIA CLOUDY 59 49 69 E5 29.95R SUMTER CLOUDY 58 49 73 E5 29.94R FLORENCE CLOUDY 60 49 66 NE8 29.98R MYRTLE BEACH MOSUNNY 61 48 63 NE12 29.98R N MYRTLE BEACH SUNNY 60 51 72 N7 29.96S $$ GAZ063-065-086>088-099>101-113>116-118-119-134>141-150-052200- ...SOUTHEAST GEORGIA... CITY SKY/WX TMP DP RH WIND PRES REMARKS SAVANNAH ARPT LGT RAIN 61 59 93 E6 29.92F VSB 1 HUNTER AAF CLOUDY 61 61 100 E5 29.89F FOG FORT STEWART NOT AVBL STATESBORO RAIN 58 58 100 CALM 29.93R SYLVANIA HVY RAIN N/A N/A N/A CALM 29.94S CLAXTON CLOUDY N/A N/A N/A CALM 29.93R FOG ...CSRA...CENTRAL AND FAR SOUTHEAST GEORGIA... CITY SKY/WX TMP DP RH WIND PRES REMARKS THOMSON CLOUDY 56 54 93 CALM 30.01R AUGUSTA-BUSH CLOUDY 59 51 75 CALM 29.95R AUGUSTA-DANIEL PTSUNNY 58 50 75 NE5 29.95R SWAINSBORO DRIZZLE 55 54 94 CALM 29.94S VIDALIA CLOUDY 59 59 100 NE5 29.92F EASTMAN LGT RAIN 56 56 100 NE3 29.94S HAZLEHURST FOG 59 59 100 CALM 29.91S VSB 1 ALMA FOG 61 61 100 N3 29.89F VSB 3/4 WAYCROSS CLOUDY 69 69 100 NE3 29.89S FOG JESUP CLOUDY 64 64 100 CALM 29.90F FOG BAXLEY CLOUDY 61 61 100 NE5 29.90S FOG BRUNSWICK CLOUDY 68 66 94 NE9 29.91S SAINT SIMONS MOSUNNY 71 66 84 SE6 29.89S $$ SCZ027-028-034-036>038-045-046-048>050-GAZ119-141-052200- ...LAKE AND SUPPLEMENTAL COASTAL OBSERVATIONS... STATION/POSITION TIME TEMP WIND PRES WAVE SWELL AIR SEA DIR/SP/G HT/PER HT/PER/DIR (UTC) (F) (DEG/KT/KT) (MB) (FT/S) (FT/S/D) WINYAH BAY 1945 59 20/ 4 1014.0 LAKE MURRAY 2020 57 130/ 1/ 2 1013.9 ACE BASIN NERRS 1945 60 360/ 2 1013.0 FORT PULASKI 2048 59 62 60/ 7/ 8 1013.4F SAPELO ISLAND 2000 64 60/ 5 1012.0 $$ ANZ835-935-AMZ111-154-330-350-352-354-370-450-454-472-052200- ...C-MAN AND BUOY OBSERVATIONS... STATION/POSITION TIME TEMP WIND PRES WAVE SWELL AIR SEA DIR/SP/G HT/PER HT/PER/DIR (UTC) (F) (DEG/KT/KT) (MB) (FT/S) (FT/S/D) BUOY 41004 2050 63 73 20/ 12/ 14 1013.6R 5/ 6 3/180/ 6 BUOY 41008 2050 66 66 50/ 4/ 4 1012.5R 3/ 6 2/140/ 6 FOLLY BEACH CMAN 2000 59 10/ 5/ 6 1014.5S CAPERS NEARSHORE 2008 57 62 60/ 6/ 8 1013.9S FRIPP NEARSHORE 2008 59 62 40/ 6/ 10 1013.2F STATION/POSITION TIME TEMP WIND PRES WAVE SWELL AIR SEA DIR/SP/G HT/PER HT/PER/DIR (UTC) (F) (DEG/KT/KT) (MB) (FT/S) (FT/S/D) 5E ST. MARYS GA 2100 67 N/A 2/ 6 FRYING PAN BUOY 2050 61 74 20/ 17/ 21 1014.3S 4/ 7 3/190/ 7 BUOY 41025 2050 57 72 360/ 19/ 25 1015.0R 6/ 8 3/160/ 8 CAPE LOOKOUT NC 2000 56 10/ 13/ 16 1014.5S BUOY 41002 2050 74 74 200/ 21/ 27 1013.8F 7/ 6 2/360/ 9 BUOY 41010 NOT AVBL ST AUGUSTINE FL 2100 70 69 180/ 3/ 3 1012.9S $$

USA.gov is the U.S. government's official web portal to all federal, state and local government web resources and services.